Lid_Strength_Index
1 0 0 0 0 0 1 1 3 5 6 6 6 6 8 7 7 7 8 7 7 5 4 5 5 5 5 5 5 4 4 4 6 5 3 3 3 3 2 2 2 2 2
1 1 1 1 1 2 3 3 5 6 6 5 6 7 7 6 7 7 7 7 5 5 5 5 5 6 5 5 5 4 4 3 5 6 4 3 2 2 2 2 3 3 3
1 1 2 3 4 4 5 6 6 6 6 6 7 7 6 7 7 7 6 5 5 5 5 5 5 5 5 5 4 4 3 4 4 4 4 2 2 2 3 2 3 3 3
3 4 5 5 5 5 6 6 6 6 6 6 6 6 6 6 6 6 5 5 5 5 5 5 5 5 4 3 3 3 4 4 3 4 4 3 3 3 3 4 4 3 4
5 6 6 6 6 6 5 5 5 6 6 4 6 6 6 6 6 6 6 6 5 5 5 4 4 3 4 4 3 3 3 4 3 4 4 4 4 4 4 3 4 4 3
6 7 7 7 7 7 6 5 6 6 6 6 7 7 6 6 8 8 7 5 6 5 5 4 3 4 4 5 5 5 4 2 3 3 4 5 4 4 3 4 4 5 6
5 7 6 6 6 5 6 6 6 6 6 6 6 6 6 6 8 8 9 7 6 6 5 4 4 3 4 3 5 6 5 5 5 2 3 4 4 3 3 4 5 5 5
6 6 6 6 5 5 5 6 6 7 6 6 6 5 5 5 9 9 10 7 6 6 4 4 4 3 3 3 3 3 2 2 2 3 3 2 2 2 2 3 4 4 4
5 5 5 5 6 6 6 6 6 5 5 5 6 7 6 6 9 9 9 7 7 6 5 4 4 4 4 4 3 3 2 1 2 3 3 3 5 5 5 4 5 5 5
6 6 5 5 7 7 7 7 7 6 7 7 8 7 8 7 8 9 8 7 7 6 5 5 6 5 5 5 3 2 3 2 2 2 3 3 4 3 5 4 4 6 5
6 7 8 8 8 8 8 8 8 8 8 8 8 7 7 8 8 9 9 8 8 8 7 6 4 5 6 5 5 3 3 1 2 2 3 3 2 2 3 3 3 4 5
7 8 8 9 9 9 9 8 9 9 10 10 9 10 9 9 10 10 9 8 8 8 8 6 5 5 4 4 4 4 4 3 2 2 3 3 3 3 3 3 3 3 3
9 9 10 10 11 11 11 11 11 11 11 11 12 11 11 10 10 10 10 10 10 8 7 7 7 6 5 5 5 5 4 2 3 3 3 3 2 2 2 3 3 3 3
10 11 11 12 12 12 11 12 12 12 12 13 12 13 12 12 11 11 11 10 10 8 8 5 6 6 6 5 5 4 3 2 2 3 3 2 2 3 3 3 4 4 4
12 13 13 13 13 12 13 13 13 12 13 13 13 13 14 13 13 13 12 11 10 10 8 6 6 5 4 4 4 3 3 2 3 2 2 2 3 3 4 4 4 4 5
13 14 14 13 13 13 13 12 15 15 15 15 15 15 14 14 14 13 12 12 11 10 8 7 6 5 4 4 3 3 3 4 3 3 2 3 3 4 4 4 4 5 5
14 15 14 14 13 14 13 13 14 13 15 15 15 16 15 15 14 13 12 12 10 10 10 9 8 7 6 3 4 3 3 3 3 3 2 3 3 3 4 4 5 5 6
16 17 14 14 14 13 14 14 14 15 15 14 14 15 15 15 14 13 12 11 10 10 10 10 10 8 8 7 5 3 3 2 3 3 2 3 3 4 4 5 5 5 5
15 15 15 14 15 15 15 15 15 15 15 15 14 14 14 15 13 12 12 11 12 12 11 11 10 10 9 9 7 5 3 2 2 2 3 3 3 3 4 4 5 5 6
16 18 17 15 15 15 15 15 16 16 16 15 15 14 14 15 13 12 11 11 12 12 12 11 11 10 10 10 8 7 5 3 2 2 3 3 3 3 4 4 5 5 6
15 16 19 16 16 16 16 16 16 16 16 15 15 14 17 16 13 12 13 12 13 13 12 12 11 11 10 10 9 8 8 6 3 2 2 3 3 4 4 4 5 5 5
17 17 17 17 16 16 18 17 16 16 16 16 15 14 16 14 13 13 13 13 13 12 12 12 12 12 11 10 10 10 8 8 5 5 3 3 3 3 4 4 5 5 5
18 17 17 17 17 19 17 17 17 16 16 16 15 15 14 14 14 14 14 14 13 13 12 12 12 13 11 10 10 9 9 8 7 7 7 4 3 3 4 5 5 6 6
18 18 18 18 18 18 17 18 17 17 17 16 15 15 15 15 15 15 15 14 14 13 13 13 13 13 12 12 10 9 8 8 8 9 7 7 3 3 4 4 5 5 6
17 18 18 17 18 18 18 17 17 16 16 16 16 15 15 15 15 15 15 14 15 14 14 14 13 13 13 13 12 10 8 9 10 10 8 7 3 3 4 4 4 5 5
17 18 18 18 17 17 17 17 17 17 17 17 16 16 16 16 16 16 15 15 15 15 15 14 14 14 13 12 11 10 10 10 10 10 9 8 3 3 3 4 4 5 5